Regional Weather Roundup
Issued by NWS

Home | Current Version | Previous Version | Graphics & Text | Print | Product List | Glossary Off
Versions: 1 2 3 4 5 6 7 8 9 10 11 12 13 14 15 16 17 18 19 20 21 22 23 24 25 26 27 28 29 30 31 32 33 34 35 36 37 38 39 40 41 42 43 44 45 46 47 48 49 50

000
ASUS43 KMKX 282221
RWRWI

WISCONSIN REGIONAL WEATHER ROUNDUP
NATIONAL WEATHER SERVICE MILWAUKEE/SULLIVAN WI
500 PM CDT TUE MAR 28 2017

NOTE: "FAIR" INDICATES FEW OR NO CLOUDS BELOW 12,000 FEET WITH NO
SIGNIFICANT WEATHER AND/OR OBSTRUCTIONS TO VISIBILITY.

WIZ001-002-006>008-014>016-023>028-282300-
NORTHWEST WISCONSIN

CITY           SKY/WX    TMP DP  RH WIND       PRES   REMARKS
SUPERIOR ARPT  MOSUNNY   59  31  34 E8        30.15R
ASHLAND        MOSUNNY   56  30  37 N8        30.16R
HAYWARD        MOSUNNY   62  14  15 VRB5      30.14S
SIREN          MOSUNNY   62  13  14 CALM      30.13S
CUMBERLAND     SUNNY     59  21  23 CALM      30.14S
RICE LAKE      SUNNY     60  22  22 CALM      30.15F
CHETEK         SUNNY     60  26  27 CALM      30.14S
LADYSMITH      SUNNY     60  23  24 CALM      30.15F
EAU CLAIRE     SUNNY     61  26  26 NE8       30.12F
MENOMONIE      SUNNY     61  31  32 NW3       30.13S
NEW RICHMOND   SUNNY     62  29  29 CALM      30.14S
OSCEOLA        SUNNY     62  27  27 CALM      30.16S
$$

WIZ003>005-009-010-017-018-282300-
NORTH CENTRAL WISCONSIN

CITY           SKY/WX    TMP DP  RH WIND       PRES   REMARKS
MANITOWISH WTR SUNNY     57  24  27 NW3       30.14S
ARBOR VITAE    SUNNY     59  24  25 W6        30.14R
WOODRUFF       SUNNY     59  24  25 W6        30.14R
RHINELANDER    SUNNY     59  26  28 E5        30.15R
EAGLE RIVER    MOSUNNY   57  23  26 CALM      30.14R
LAND O LAKES   MOSUNNY   57  24  28 CALM      30.15S
PHILLIPS       SUNNY     59  22  24 CALM      30.13S
TOMAHAWK       SUNNY     57  21  24 CALM      30.15R
MEDFORD        SUNNY     56  30  37 CALM      30.14S
MERRILL        SUNNY     58  27  30 SE7       30.15R
$$

WIZ029-030-035-036-043>047-282300-
CENTRAL WISCONSIN

CITY           SKY/WX    TMP DP  RH WIND       PRES   REMARKS
WAUSAU         SUNNY     58  26  29 NW6       30.13S
MOSINEE        SUNNY     57  27  30 VRB6      30.15S
MARSHFIELD     SUNNY     56  35  45 CALM      30.14S
STEVENS POINT  SUNNY     56  27  32 E6        30.15R
WAUPACA        SUNNY     60  29  32 E7        30.16S
WAUTOMA        SUNNY     58  32  37 E9        30.15S
WISC RAPIDS    SUNNY     60  31  33 E9        30.15S
CAMP DOUGLAS   MOSUNNY   59  36  41 S3        30.13S
$$

WIZ011>013-019>022-031-037>040-048>050-282300-
NORTHEAST WISCONSIN

CITY           SKY/WX    TMP DP  RH WIND       PRES   REMARKS
ANTIGO         SUNNY     56  28  34 CALM      30.15S
SHAWANO        SUNNY     57  33  39 NE6       30.17R
OCONTO         SUNNY     46  32  58 E3        30.19R
STURGEON BAY   SUNNY     45  37  73 VRB5      30.23S
GREEN BAY      SUNNY     50  38  63 NE7       30.18R
MANITOWOC      SUNNY     41  36  82 NE8       30.19R
APPLETON       MOSUNNY   54  21  28 NE7       30.14S
CLINTONVILLE   SUNNY     57  32  38 NE5       30.16S
OSHKOSH        SUNNY     52  36  54 NE9       30.15F
$$

WIZ032>034-041-042-053>061-282300-
SOUTHWEST WISCONSIN

CITY           SKY/WX    TMP DP  RH WIND       PRES   REMARKS
LA CROSSE      SUNNY     61  39  44 W5        30.12F
SPARTA         SUNNY     60  33  36 SE5       30.13F
VIROQUA        SUNNY     58  36  43 CALM      30.12F
BOSCOBEL       SUNNY     59  36  42 VRB3      30.13F
PRAIRIE DU CHI SUNNY     55  36  49 SE5       30.13S
PLATTEVILLE    SUNNY     52  43  72 E3        30.14S
$$

WIZ056-057-062-063-064-067-068-282300-
SOUTH CENTRAL WISCONSIN

CITY           SKY/WX    TMP DP  RH WIND       PRES   REMARKS
REEDSBURG      SUNNY     58  35  41 NE3       30.12F
BARABOO/DELLS  SUNNY     58  33  39 NE8       30.13S
LONE ROCK      SUNNY     59  38  45 E5        30.13S
MINERAL POINT  MOSUNNY   57  37  47 SE3       30.12S
MADISON        MOSUNNY   56  38  50 NE10G20   30.13S
MIDDLETON      SUNNY     58  39  50 NE9       30.13S
WATERTOWN      HAZE      56  40  55 N8        30.12S VSB 3/4
MONROE         SUNNY     54  37  54 E6        30.12S
JANESVILLE     PTSUNNY   57  37  47 NE12      30.12S
$$

WIZ051-052-058>065-066-070>072-282300-
SOUTHEAST WISCONSIN

CITY           SKY/WX    TMP DP  RH WIND       PRES   REMARKS
MILWAUKEE      CLOUDY    37  34  89 NE9       30.18S WCI  30
WAUKESHA       SUNNY     46  37  71 NE12G17   30.16R
MILWAUKEE/TIMM CLOUDY    37  34  87 NE10      30.18S WCI  30
RACINE         CLOUDY    37  33  85 N14       30.19R WCI  28
KENOSHA        SUNNY     45  36  70 NE13      30.16S
FOND DU LAC    SUNNY     54  39  57 N8        30.15F
SHEBOYGAN      CLOUDY    37  35  92 E8        30.18S FOG     WCI  31
WEST BEND      SUNNY     46  39  76 E7        30.16R
JUNEAU         SUNNY     53  40  60 N7        30.15S
$$

LSZ147-162-282300-
LAKE SUPERIOR

STATION/POSITION TIME  TEMP    WIND        PRES    WAVE
                       AIR SEA DIR/SP/G            HT/PER
                 (UTC) (F)     (DEG/KT/KT) (MB)    (FT/S)
DEVILS ISLAND    2200   36      60/ 12/ 14 1022.9R
PORT WING        2130   53      50/  2/  3 1021.3S
SAXON HARBOR     2130   47      40/  2/  5 1021.3F
$$

LMZ867-665-643>646-282300-
LAKE MICHIGAN

STATION/POSITION TIME  TEMP    WIND        PRES    WAVE
                       AIR SEA DIR/SP/G            HT/PER
                 (UTC) (F)     (DEG/KT/KT) (MB)    (FT/S)
CHAMBERS ISLAND  2140   38      CALM  /  3 1022.0S
NORTHPORT PIER   2140   33     150/  4/  6 1022.4S
SISTER BAY       2021   36     360/ 14/ 15   N/A
KEWAUNEE LAKESHO 2154   35      40/  5/  9 1022.1R
SHEBOYGAN LAKESH 2200   34      10/  9/ 10 1022.6F
PORT WASHINGTON  2140   36      50/ 12/ 15 1023.0S
MILWAUKEE LAKESH 2200   35      40/ 11/ 12   N/A
KENOSHA   LAKESH 2200   35      20/ 13/ 15 1021.7
$$

TC  - TEMPERATURE IN CELSIUS
VSB - VISIBILITY IN STATUTE MILES
WCI - WIND CHILL INDEX
HX  - HEAT INDEX





USA.gov is the U.S. government's official web portal to all federal, state and local government web resources and services.